Theta_e
317 315 315 314 313 316 317 317 317 317 317 324 325 330 324 328 329 329 330 330 331 331 331 332 331 331 331 331 331 332 333 333 334 337 343 345 344 344 345 345 347 341 342 341
315 315 315 315 316 317 317 318 317 316 318 328 328 331 329 325 327 328 328 329 330 331 330 331 330 330 330 331 331 332 333 333 334 335 338 341 341 342 344 345 344 343 341 341
315 316 317 318 319 319 318 318 317 318 319 324 331 327 333 327 327 327 327 328 329 330 330 330 330 330 330 330 331 332 333 333 334 335 337 341 342 343 345 345 344 342 342 341
316 316 318 318 318 317 317 316 318 319 318 317 329 333 327 330 330 329 327 326 328 329 329 329 330 330 329 330 330 331 332 333 334 333 335 336 338 339 340 342 344 343 341 340
318 319 318 319 319 317 318 318 317 319 317 316 318 320 320 325 331 329 329 329 329 328 328 329 329 330 329 329 329 330 331 332 333 332 334 335 337 341 342 344 343 344 342 339
318 320 319 319 319 318 320 319 316 312 312 315 315 316 314 318 323 327 328 331 332 332 331 330 329 329 329 329 329 329 330 331 332 332 334 335 336 340 343 346 344 343 341 337
319 319 318 320 320 319 317 315 317 318 317 317 315 316 315 319 318 321 321 324 326 325 328 332 328 327 329 329 329 329 330 331 331 332 335 336 339 341 341 345 345 343 341 336
319 321 320 320 320 322 321 316 317 319 317 317 316 317 318 318 320 323 325 324 325 328 326 326 331 329 328 329 330 330 330 330 331 333 335 336 336 336 343 347 346 344 341 335
319 320 320 322 322 322 322 319 317 317 315 316 316 317 318 319 321 324 326 328 326 326 330 330 325 328 328 328 330 330 330 330 332 333 335 335 332 333 337 346 347 343 343 334
320 321 321 323 323 322 321 318 320 314 320 319 317 320 320 321 321 323 322 326 327 329 335 332 329 329 328 329 329 331 331 331 332 334 335 335 333 330 336 346 348 342 343 334
322 320 323 323 323 322 321 320 316 315 315 318 318 318 317 320 321 323 322 327 328 329 331 334 332 332 331 330 329 332 332 332 333 334 335 336 336 333 336 346 349 347 343 334
323 320 322 323 323 323 321 321 318 320 321 318 318 320 320 320 318 320 323 324 324 327 328 331 334 333 333 332 331 331 332 333 335 336 337 336 337 335 341 349 349 347 344 335
327 319 320 319 319 320 323 324 319 317 317 321 322 323 321 320 321 326 326 326 329 327 323 328 335 335 335 334 334 333 334 334 336 338 338 337 336 333 343 348 345 348 345 336
325 320 319 320 320 326 328 326 324 321 321 322 321 322 322 323 326 325 326 326 327 329 331 328 328 338 336 336 335 335 335 336 337 340 339 338 336 332 333 338 343 347 345 335
319 322 328 326 326 327 327 327 326 323 320 322 321 320 324 326 325 325 326 324 325 327 331 331 333 331 337 337 337 337 337 337 339 341 340 339 336 333 334 339 346 345 340 331
317 319 325 324 323 325 325 322 324 326 326 319 319 320 324 323 322 323 324 322 323 324 328 332 332 333 336 338 338 338 339 339 341 342 341 339 335 335 343 346 347 343 335 331
316 319 321 322 324 323 321 322 324 325 327 326 326 327 322 322 322 321 321 320 321 322 323 327 332 332 333 336 338 339 338 340 342 343 341 340 335 337 345 346 345 342 336 332
315 319 318 318 322 323 317 320 322 328 327 326 326 325 323 322 321 321 321 320 320 321 322 323 327 332 330 334 339 343 338 339 340 340 342 339 335 339 344 342 340 337 333 332
313 315 318 319 319 317 320 325 324 326 326 325 325 323 320 320 320 323 318 320 319 320 321 322 324 326 332 331 333 343 346 341 340 340 340 339 335 342 343 340 338 336 335 337
314 315 317 317 321 323 322 319 317 320 327 319 322 319 319 318 316 317 317 318 319 320 321 322 324 325 329 332 329 336 344 349 347 343 340 340 342 342 341 340 339 330 339 338
315 314 317 316 318 318 316 312 314 326 319 316 321 318 319 318 318 317 316 315 315 319 320 321 322 325 325 326 328 329 331 338 338 344 344 342 345 343 342 337 328 337 340 338
311 314 315 316 318 319 311 312 312 311 310 317 314 311 312 315 317 316 315 313 313 313 318 320 322 324 324 325 327 327 328 329 330 339 342 343 343 344 341 334 337 338 339 336
308 310 309 310 311 311 309 308 307 311 314 311 310 310 310 311 312 312 312 314 312 313 314 316 320 322 323 325 326 326 327 327 327 328 332 332 338 342 339 339 338 338 338 336
308 307 306 307 307 307 307 307 308 309 308 309 309 309 309 311 312 313 314 315 315 313 313 314 318 320 323 322 322 323 326 327 326 326 330 331 340 340 339 338 337 336 334 331
307 306 305 305 305 306 307 308 307 308 307 308 310 311 312 313 313 313 313 314 314 314 315 314 316 319 319 324 323 322 322 323 326 323 324 327 336 336 337 336 334 332 331 330
305 303 304 304 305 305 306 306 307 307 310 312 312 312 312 313 313 313 314 314 315 315 315 316 314 317 318 321 322 323 323 324 324 322 324 330 330 331 331 332 331 328 329 328
Wind_Speed
4 4 5 8 6 3 2 3 5 6 8 3 4 8 13 30 26 25 29 32 38 46 52 48 49 47 45 44 43 43 43 37 35 35 34 32 31 28 27 25 24 20 18 16
5 6 10 4 3 4 3 4 10 9 5 4 6 6 5 12 28 32 35 34 40 48 41 49 50 50 51 53 51 48 46 43 39 39 39 39 34 31 29 28 26 23 20 17
6 7 3 3 3 3 4 4 7 9 6 3 2 5 3 7 19 25 25 37 41 48 51 51 53 53 55 55 57 53 51 47 44 43 41 39 36 34 34 33 31 26 21 15
5 5 5 2 6 6 5 8 11 6 2 3 3 4 5 5 12 15 33 33 44 49 45 49 54 54 55 58 57 56 54 51 49 45 45 43 39 42 42 38 31 27 23 18
9 4 5 2 7 7 10 3 7 4 3 4 3 3 7 3 5 10 25 39 46 54 54 55 56 59 59 55 57 61 59 55 53 50 46 44 41 44 41 38 31 29 25 20
9 4 5 7 5 7 5 3 5 5 4 1 6 7 6 5 8 5 7 22 39 48 51 54 59 63 53 53 57 61 63 60 57 52 46 46 42 47 43 39 34 30 27 23
5 9 4 6 3 1 4 6 3 5 4 6 2 3 8 7 8 9 12 30 29 30 35 49 53 53 59 56 62 62 66 63 61 54 49 47 45 47 42 40 36 32 19 26
1 8 6 5 8 6 2 7 5 7 5 6 2 4 6 9 17 14 14 17 24 28 28 35 48 58 61 69 67 66 68 66 62 57 52 46 45 47 42 40 39 34 26 25
1 9 5 3 3 6 3 3 4 2 2 3 4 7 9 7 8 11 13 22 23 12 17 23 34 43 58 64 68 69 66 66 63 61 53 49 40 44 43 39 39 30 27 24
4 7 6 14 3 2 5 5 0 2 3 5 5 3 5 8 9 8 10 12 12 16 11 7 5 29 51 57 63 62 62 63 64 62 56 57 37 37 40 37 37 32 27 27
1 2 7 2 2 7 1 3 4 5 5 5 2 6 7 8 8 8 9 7 6 9 12 13 16 26 37 50 56 59 59 60 59 58 59 60 44 33 38 39 40 36 29 29
3 2 4 7 6 4 3 5 5 5 5 3 4 6 3 5 8 13 19 29 33 24 14 14 21 25 35 44 53 59 58 58 57 55 58 56 46 35 38 41 39 37 31 31
5 2 3 10 7 5 4 3 4 4 3 4 4 5 5 9 11 20 21 29 35 37 31 26 23 29 36 43 50 52 57 59 56 55 56 50 42 36 39 43 41 36 33 34
5 1 6 6 5 2 6 8 2 3 2 4 6 6 7 8 11 20 24 29 31 36 34 29 29 34 38 43 49 53 57 58 56 56 58 52 39 40 41 44 41 38 37 36
4 3 2 5 7 7 9 4 8 5 8 7 7 8 2 7 9 14 16 25 29 40 40 41 35 28 42 43 47 53 58 60 57 58 59 54 44 41 40 40 37 34 37 39
1 4 2 6 7 8 6 8 11 13 12 7 6 6 3 12 16 17 17 29 30 33 36 44 43 35 28 46 51 51 55 59 59 59 60 53 46 40 36 33 32 35 37 37
4 4 1 6 6 7 9 10 11 2 7 4 2 4 8 13 19 20 21 28 31 35 39 39 42 44 34 30 41 52 55 60 59 60 61 55 46 40 34 31 32 36 37 37
5 1 2 4 3 5 4 5 3 8 6 7 4 3 5 11 25 22 23 34 39 42 43 40 37 39 41 32 28 40 43 57 60 59 61 55 48 41 37 36 34 36 37 38
10 3 2 2 3 6 4 7 5 4 2 4 4 5 10 14 15 2 26 30 33 36 38 39 37 34 34 32 24 23 33 45 56 62 63 61 52 45 39 35 36 33 38 38
3 1 3 0 3 5 2 8 19 8 4 8 4 10 14 16 9 3 27 30 30 33 35 37 36 32 30 35 29 21 15 28 43 57 64 64 54 47 43 41 27 25 42 42
4 2 5 4 5 4 5 13 18 5 5 18 10 18 17 6 11 26 29 29 30 28 32 34 36 32 27 28 32 29 20 23 23 35 44 53 60 49 38 29 32 39 42 43
2 3 2 0 2 7 11 6 3 11 28 17 18 27 27 28 31 32 30 32 33 33 30 31 33 34 31 25 23 26 23 23 26 28 29 55 62 49 43 38 36 41 39 42
4 1 2 3 5 6 4 10 21 14 11 24 31 34 36 36 36 37 36 32 32 31 30 28 28 31 26 21 18 20 17 17 26 34 28 43 54 39 37 35 36 40 42 42
3 3 1 5 6 12 31 36 21 18 35 30 38 37 34 36 34 35 36 35 34 34 35 31 24 23 23 15 13 15 16 20 19 17 26 45 48 33 37 36 36 40 41 41
6 6 3 7 16 22 18 16 35 40 37 40 36 34 32 30 36 36 35 33 33 36 35 32 27 23 24 19 13 13 13 14 8 9 20 14 22 31 31 31 32 32 33 32
5 6 3 5 17 19 31 35 38 41 38 35 37 39 34 33 33 33 34 30 30 32 31 30 27 25 22 16 16 9 9 11 13 12 19 20 17 24 28 30 31 32 28 24
Wind_Direction
8 56 242 238 195 200 257 219 265 256 258 249 254 222 199 197 195 191 194 203 209 214 212 210 216 219 220 218 217 217 216 217 215 211 205 206 214 220 228 231 231 240 247 259
19 249 239 239 194 217 238 308 295 292 330 162 303 287 227 186 206 202 196 202 214 221 219 217 219 221 223 223 220 217 219 219 217 218 217 216 220 225 228 231 236 243 251 250
171 234 104 164 296 268 251 211 257 233 336 317 26 320 206 193 207 224 228 217 217 219 217 215 218 220 222 225 221 218 219 219 217 218 219 220 223 224 227 229 233 239 243 245
230 280 224 246 257 163 277 212 232 244 141 219 79 271 300 201 229 221 225 222 226 226 226 225 217 221 224 226 223 220 220 220 215 218 222 222 228 226 228 230 231 240 240 238
244 242 270 213 234 157 238 157 208 209 160 81 334 92 266 330 265 231 227 226 228 233 231 229 225 222 224 226 225 222 221 220 217 221 225 228 225 233 234 227 232 237 237 221
242 264 174 217 261 176 254 134 43 37 101 69 238 166 270 240 225 284 271 221 235 238 239 239 234 232 222 226 224 224 221 220 219 223 227 231 238 229 226 222 233 234 227 215
333 262 231 189 263 4 87 63 332 337 349 230 286 68 243 258 244 228 269 292 282 259 252 241 230 224 222 221 225 223 219 220 221 222 225 231 241 235 233 232 234 233 255 214
188 321 182 169 184 200 191 152 154 231 229 249 3 247 245 227 267 279 299 324 301 274 264 246 237 225 221 222 223 221 220 220 220 220 225 229 245 238 232 231 239 248 251 212
140 265 310 241 225 128 276 207 193 162 55 68 226 293 300 279 290 313 332 359 345 300 274 264 239 227 217 217 217 221 221 221 220 221 223 229 248 234 234 230 239 253 234 218
271 294 246 277 127 193 165 173 354 16 262 267 283 264 233 292 291 301 319 345 340 320 294 266 249 224 218 220 219 219 221 225 224 221 222 230 251 234 237 231 237 248 238 220
10 162 290 353 197 220 284 256 63 122 149 191 223 264 223 246 260 253 278 322 343 331 297 262 224 225 226 219 217 219 223 227 227 224 224 232 247 248 238 230 235 244 230 221
319 180 278 243 269 260 233 233 160 138 251 216 165 259 262 297 308 324 335 340 336 309 284 268 240 226 219 218 218 222 225 228 227 226 224 232 244 249 233 228 233 240 230 223
327 322 355 333 341 8 45 4 102 113 70 224 168 254 317 29 7 355 351 351 346 343 346 283 242 232 222 221 221 224 226 227 225 221 225 230 243 244 230 229 235 235 231 223
151 139 174 202 249 353 302 317 293 143 151 229 223 262 297 351 346 336 352 354 355 356 358 350 294 246 229 224 223 226 227 227 225 222 223 229 241 236 228 230 231 233 227 220
73 290 244 249 264 282 276 298 319 254 228 200 253 242 0 330 315 318 349 354 359 2 359 359 350 300 262 234 232 225 228 229 226 223 224 229 235 229 228 226 228 231 219 218
308 267 267 266 267 262 260 294 276 274 270 252 259 257 13 322 332 342 2 357 354 356 353 356 353 352 299 262 237 230 227 228 228 225 225 229 231 226 223 222 225 219 215 219
210 201 226 259 223 307 285 228 237 293 41 331 350 343 344 345 341 336 1 358 350 349 351 350 354 355 348 296 271 245 228 228 228 227 226 229 228 224 218 218 219 217 218 220
256 109 183 261 243 237 258 48 47 103 53 21 4 358 334 312 313 314 6 358 355 351 349 347 345 346 352 339 288 268 250 233 228 229 227 227 226 222 217 210 211 217 218 222
199 126 269 255 241 294 4 15 358 359 82 7 335 339 328 322 314 169 342 350 349 347 344 341 337 338 334 346 336 271 257 247 237 228 228 226 222 214 212 211 207 218 227 225
100 105 150 257 262 253 1 337 323 300 234 357 341 330 330 342 350 310 336 342 340 345 345 339 334 329 325 320 336 334 294 257 245 246 233 225 214 210 208 203 198 209 229 226
322 307 215 214 243 283 323 10 334 222 306 329 323 326 316 311 299 314 331 336 341 331 342 338 330 329 332 325 319 323 308 288 297 251 240 232 211 205 202 197 211 219 218 223
287 308 278 58 273 277 21 15 63 294 305 318 328 328 322 316 314 314 320 326 328 328 318 332 334 325 325 322 322 309 305 291 300 263 270 236 224 195 197 204 211 216 216 218
281 125 267 210 242 288 340 307 312 311 316 312 315 312 310 308 306 306 308 311 319 321 320 315 323 330 317 323 316 316 309 312 283 285 280 249 202 193 200 205 210 213 214 215
303 30 248 2 271 307 307 305 307 300 311 305 306 303 299 295 301 306 304 304 307 312 313 319 307 319 326 322 338 0 334 294 288 292 283 205 214 199 203 206 212 214 208 208
238 334 262 269 289 300 293 301 303 309 306 305 309 305 294 295 303 305 306 307 306 308 307 311 312 299 303 305 336 343 2 12 24 15 320 193 183 204 201 204 209 214 213 212
207 211 174 248 291 289 290 298 299 298 302 308 309 309 297 293 296 303 304 304 308 308 307 306 298 299 289 288 286 321 339 9 1 37 312 294 230 208 199 198 199 208 213 216